• In Czech Republic
  • List of Countries
  • For 7 days
  • Water Temperature
  • Satellite Maps
  • Weather Map
  • Weather Widgets
  • user-avatar
    Login

    Hourly Weather Whitley Bay

    Today, 19 January, Friday

    Time Temperature Precipitation Wind Pressure Humidity
    00:00 -3°C° 0 mm 6 mps 749 mmHg 89%
    01:00 -3°C° 0 mm 6 mps 749 mmHg 88%
    02:00 -3°C° 0 mm 6 mps 749 mmHg 88%
    03:00 -2°C° 0 mm 7 mps 749 mmHg 87%
    04:00 -2°C° 0 mm 6 mps 749 mmHg 87%
    05:00 -2°C° 0 mm 6 mps 749 mmHg 86%
    06:00 -2°C° 0 mm 5 mps 749 mmHg 88%
    07:00 -3°C° 0 mm 6 mps 749 mmHg 87%
    08:00 -3°C° 0 mm 6 mps 749 mmHg 86%
    09:00 -2°C° 0 mm 6 mps 749 mmHg 85%
    10:00 -2°C° 0 mm 6 mps 749 mmHg 85%
    11:00 -1°C° 0 mm 6 mps 749 mmHg 85%
    12:00 0°C° 0 mm 5 mps 749 mmHg 89%
    13:00 -1°C° 0 mm 6 mps 749 mmHg 87%
    14:00 -1°C° 0 mm 6 mps 749 mmHg 86%
    15:00 -1°C° 0 mm 7 mps 749 mmHg 84%
    16:00 -1°C° 0 mm 7 mps 749 mmHg 84%
    17:00 -1°C° 0 mm 7 mps 749 mmHg 84%
    18:00 -2°C° 0 mm 7 mps 749 mmHg 84%
    19:00 -2°C° 0 mm 7 mps 749 mmHg 84%
    20:00 -2°C° 0 mm 6 mps 749 mmHg 84%
    21:00 -2°C° 0 mm 6 mps 749 mmHg 83%
    22:00 -2°C° 0 mm 6 mps 749 mmHg 83%
    23:00 -2°C° 0 mm 6 mps 749 mmHg 83%

    Tomorrow, 20 January, Saturday

    Time Temperature Precipitation Wind Pressure Humidity
    00:00 -2°C° 0 mm 6 mps 749 mmHg 83%
    01:00 -2°C° 0 mm 6 mps 749 mmHg 83%
    02:00 -2°C° 0 mm 6 mps 749 mmHg 84%
    03:00 -2°C° 0 mm 6 mps 749 mmHg 84%
    04:00 -2°C° 0 mm 6 mps 749 mmHg 85%
    05:00 -1°C° 0 mm 5 mps 749 mmHg 85%
    06:00 -1°C° 0 mm 5 mps 749 mmHg 86%
    07:00 -1°C° 0 mm 5 mps 749 mmHg 86%
    08:00 -1°C° 0 mm 5 mps 749 mmHg 87%
    09:00 -1°C° 0 mm 4 mps 749 mmHg 87%
    10:00 0°C° 0 mm 4 mps 749 mmHg 88%
    11:00 0°C° 0 mm 4 mps 749 mmHg 89%
    12:00 +1°C° 0 mm 3 mps 750 mmHg 89%
    13:00 0°C° 0 mm 4 mps 750 mmHg 88%
    14:00 0°C° 0 mm 4 mps 750 mmHg 87%
    15:00 0°C° 0 mm 4 mps 751 mmHg 86%
    16:00 -1°C° 0 mm 4 mps 751 mmHg 86%
    17:00 -1°C° 0 mm 4 mps 752 mmHg 86%
    18:00 -2°C° 0 mm 4 mps 753 mmHg 85%
    19:00 -3°C° 0 mm 4 mps 753 mmHg 85%
    20:00 -3°C° 0 mm 4 mps 754 mmHg 84%
    21:00 -2°C° 0 mm 3 mps 755 mmHg 84%
    22:00 -2°C° 0 mm 3 mps 755 mmHg 83%
    23:00 -4°C° 0 mm 3 mps 755 mmHg 82%

    Day after tomorrow, 21 January, Sunday

    Time Temperature Precipitation Wind Pressure Humidity
    00:00 -3°C° 0 mm 2 mps 756 mmHg 81%
    01:00 -2°C° 0 mm 2 mps 756 mmHg 80%
    02:00 -1°C° 0 mm 2 mps 756 mmHg 79%
    03:00 -1°C° 0 mm 2 mps 756 mmHg 78%
    04:00 -1°C° 0.1 mm 2 mps 756 mmHg 79%
    05:00 -1°C° 0.1 mm 2 mps 756 mmHg 81%
    06:00 -1°C° 0.1 mm 3 mps 756 mmHg 82%
    07:00 -1°C° 0.1 mm 4 mps 756 mmHg 83%
    08:00 -1°C° 0.1 mm 4 mps 756 mmHg 84%
    09:00 -1°C° 0.1 mm 5 mps 755 mmHg 85%
    10:00 -2°C° 0.2 mm 6 mps 755 mmHg 86%
    11:00 -1°C° 0.2 mm 7 mps 754 mmHg 88%
    12:00 -1°C° 0.2 mm 7 mps 754 mmHg 89%
    13:00 -1°C° 0.6 mm 7 mps 753 mmHg 91%
    14:00 -1°C° 0.6 mm 8 mps 753 mmHg 92%
    15:00 -1°C° 0.6 mm 8 mps 752 mmHg 94%
    16:00 0°C° 1.2 mm 7 mps 751 mmHg 95%
    17:00 0°C° 1.2 mm 7 mps 751 mmHg 96%
    18:00 +1°C° 1.2 mm 6 mps 751 mmHg 97%
    19:00 +2°C° 0.2 mm 6 mps 750 mmHg 98%
    20:00 +2°C° 0.2 mm 5 mps 750 mmHg 98%
    21:00 +3°C° 0.2 mm 5 mps 749 mmHg 98%
    22:00 +5°C° 0 mm 5 mps 749 mmHg 98%
    23:00 +5°C° 0 mm 5 mps 749 mmHg 98%

    22 January, Monday

    Time Temperature Precipitation Wind Pressure Humidity
    00:00 +6°C° 0 mm 5 mps 749 mmHg 99%
    01:00 +6°C° 0 mm 5 mps 749 mmHg 98%
    02:00 +6°C° 0 mm 4 mps 749 mmHg 98%
    03:00 +5°C° 0 mm 4 mps 749 mmHg 98%
    04:00 +5°C° 0 mm 4 mps 749 mmHg 97%
    05:00 +4°C° 0 mm 3 mps 749 mmHg 97%
    06:00 +4°C° 0 mm 3 mps 749 mmHg 96%
    07:00 +4°C° 0 mm 4 mps 750 mmHg 95%
    08:00 +3°C° 0 mm 4 mps 750 mmHg 94%
    09:00 +3°C° 0 mm 4 mps 751 mmHg 93%
    10:00 +3°C° 0 mm 5 mps 752 mmHg 91%
    11:00 +3°C° 0 mm 5 mps 753 mmHg 89%
    12:00 +4°C° 0 mm 6 mps 754 mmHg 88%
    13:00 +3°C° 0 mm 5 mps 754 mmHg 88%
    14:00 +3°C° 0 mm 5 mps 755 mmHg 88%
    15:00 +3°C° 0 mm 5 mps 755 mmHg 88%
    16:00 +3°C° 0 mm 5 mps 756 mmHg 89%
    17:00 +2°C° 0 mm 5 mps 756 mmHg 90%
    18:00 +1°C° 0 mm 5 mps 757 mmHg 91%
    19:00 +1°C° 0 mm 5 mps 757 mmHg 90%
    20:00 +2°C° 0 mm 5 mps 757 mmHg 90%
    21:00 +2°C° 0 mm 5 mps 757 mmHg 90%
    22:00 +2°C° 0 mm 6 mps 757 mmHg 89%
    23:00 +3°C° 0 mm 6 mps 757 mmHg 89%

    23 January, Tuesday

    Time Temperature Precipitation Wind Pressure Humidity
    00:00 +3°C° 0 mm 7 mps 757 mmHg 88%
    01:00 +4°C° 0 mm 7 mps 756 mmHg 88%
    02:00 +4°C° 0 mm 8 mps 755 mmHg 88%
    03:00 +5°C° 0 mm 8 mps 755 mmHg 88%
    04:00 +5°C° 0 mm 8 mps 754 mmHg 87%
    05:00 +6°C° 0 mm 9 mps 753 mmHg 87%
    06:00 +6°C° 0 mm 9 mps 753 mmHg 87%
    07:00 +7°C° 0 mm 9 mps 753 mmHg 87%
    08:00 +7°C° 0 mm 9 mps 753 mmHg 88%
    09:00 +8°C° 0 mm 9 mps 753 mmHg 88%
    10:00 +8°C° 0 mm 9 mps 753 mmHg 86%
    11:00 +9°C° 0 mm 8 mps 754 mmHg 85%
    12:00 +10°C° 0 mm 8 mps 754 mmHg 84%
    13:00 +9°C° 0 mm 7 mps 754 mmHg 82%
    14:00 +9°C° 0 mm 7 mps 754 mmHg 80%
    15:00 +9°C° 0 mm 6 mps 754 mmHg 78%
    16:00 +8°C° 0 mm 7 mps 754 mmHg 81%
    17:00 +8°C° 0 mm 7 mps 754 mmHg 83%
    18:00 +6°C° 0 mm 7 mps 754 mmHg 85%
    19:00 +7°C° 0 mm 8 mps 753 mmHg 85%
    20:00 +8°C° 0 mm 9 mps 752 mmHg 84%
    21:00 +8°C° 0 mm 10 mps 752 mmHg 84%
    22:00 +9°C° 0 mm 11 mps 751 mmHg 83%
    23:00 +9°C° 0 mm 11 mps 750 mmHg 82%

    24 January, Wednesday

    Time Temperature Precipitation Wind Pressure Humidity
    00:00 +10°C° 0 mm 12 mps 749 mmHg 81%
    01:00 +11°C° 0.3 mm 11 mps 749 mmHg 82%
    02:00 +11°C° 0.3 mm 11 mps 749 mmHg 82%
    03:00 +11°C° 0.3 mm 11 mps 748 mmHg 83%
    04:00 +10°C° 1.8 mm 9 mps 748 mmHg 84%
    05:00 +9°C° 1.8 mm 8 mps 749 mmHg 84%
    06:00 +8°C° 1.8 mm 6 mps 749 mmHg 85%
    07:00 +7°C° 0.2 mm 5 mps 749 mmHg 85%
    08:00 +7°C° 0.2 mm 5 mps 749 mmHg 85%
    09:00 +7°C° 0.2 mm 4 mps 750 mmHg 84%
    10:00 +7°C° 0.3 mm 4 mps 750 mmHg 84%
    11:00 +7°C° 0.3 mm 4 mps 749 mmHg 83%
    12:00 +6°C° 0.3 mm 4 mps 749 mmHg 83%
    13:00 +6°C° 0.3 mm 5 mps 749 mmHg 82%
    14:00 +5°C° 0.3 mm 6 mps 749 mmHg 81%
    15:00 +5°C° 0.3 mm 6 mps 749 mmHg 81%
    16:00 +5°C° 0.3 mm 6 mps 749 mmHg 82%
    17:00 +5°C° 0.3 mm 5 mps 749 mmHg 83%
    18:00 +5°C° 0.3 mm 5 mps 749 mmHg 84%
    19:00 +5°C° 0.5 mm 5 mps 749 mmHg 82%
    20:00 +5°C° 0.5 mm 5 mps 749 mmHg 81%
    21:00 +3°C° 0.5 mm 6 mps 749 mmHg 79%
    22:00 +3°C° 0 mm 6 mps 749 mmHg 78%
    23:00 +3°C° 0 mm 7 mps 749 mmHg 77%
    Show more